NJE536Q EGLF-OERK

Flight info

Callsign NJE536Q
Flight time 6h 3m
Altitude 37000
Route GWC N16 BIG UL9 KONAN UL607 REMBA DCT LIRSU DCT LALMI DCT ABTAL DCT RIDAR DCT GOMIG DCT MUREG DCT VABEK/N0459F390 UL603 OLOTA DCT MAKED UL617 TSL UN130 MES UL609 RDS UL995 VANZA DCT RASDA A16 CVO L315 HGD M872 WEJ J874 GAS G662 KUNEK
Aircraft CL60/M-SBDE1E2E3FGHIJ1J4J5J7M3RWXYLB1V1D1/HB1D1

Departure

Time 2026-05-04 06:36
Airport Farnborough Airport (EGLF)

Arrival

Time 2026-05-04 12:39
Airport King Khalid International Airport (OERK)
Time Latitude Longitude Altitude Speed Heading
2026-05-04 05:47 51.28027 -0.77298 241 ft 0 kts 333°
2026-05-04 06:30 51.28031 -0.77302 240 ft 1 kts 332°
2026-05-04 06:31 51.28054 -0.77318 240 ft 4 kts 356°
2026-05-04 06:31 51.28080 -0.77278 240 ft 6 kts 62°
2026-05-04 06:31 51.28103 -0.77207 240 ft 8 kts 62°
2026-05-04 06:31 51.28122 -0.77114 240 ft 10 kts 99°
2026-05-04 06:32 51.28099 -0.76997 240 ft 11 kts 108°
2026-05-04 06:33 51.28203 -0.76248 240 ft 12 kts 91°
2026-05-04 06:34 51.28199 -0.76162 240 ft 6 kts 114°
2026-05-04 06:34 51.28154 -0.76139 240 ft 8 kts 182°
2026-05-04 06:34 51.28093 -0.76140 240 ft 6 kts 179°
2026-05-04 06:34 51.28069 -0.76163 240 ft 3 kts 243°
2026-05-04 06:35 51.28045 -0.76236 240 ft 14 kts 242°
2026-05-04 06:36 51.23311 -0.85199 2947 ft 202 kts 204°
2026-05-04 06:37 51.22028 -0.86099 3048 ft 202 kts 202°
2026-05-04 06:37 51.20735 -0.87010 2972 ft 208 kts 203°
2026-05-04 06:37 51.19389 -0.87967 2978 ft 218 kts 204°
2026-05-04 06:37 51.17970 -0.88975 2994 ft 223 kts 204°
2026-05-04 06:38 51.16547 -0.89989 2997 ft 223 kts 204°
2026-05-04 06:38 51.15145 -0.90987 2999 ft 223 kts 204°
2026-05-04 06:40 51.07025 -1.00012 3004 ft 222 kts 169°
2026-05-04 06:40 51.05486 -0.99630 3000 ft 223 kts 170°
2026-05-04 06:40 51.03927 -0.99252 3091 ft 240 kts 170°
2026-05-04 06:40 51.02271 -0.98851 4116 ft 244 kts 171°
2026-05-04 06:41 51.00591 -0.98425 5109 ft 252 kts 168°
2026-05-04 06:41 50.98839 -0.97791 5971 ft 264 kts 166°
2026-05-04 06:41 50.97054 -0.97100 6982 ft 269 kts 166°
2026-05-04 06:41 50.95332 -0.95994 7974 ft 274 kts 146°
2026-05-04 06:42 50.93912 -0.93981 8947 ft 279 kts 136°
2026-05-04 06:42 50.92530 -0.91764 9915 ft 284 kts 136°
2026-05-04 06:42 50.91148 -0.89565 10874 ft 287 kts 136°
2026-05-04 06:44 50.89338 -0.69379 16477 ft 328 kts 46°
2026-05-04 06:44 50.90941 -0.66781 17192 ft 332 kts 46°
2026-05-04 06:44 50.92543 -0.64164 17873 ft 335 kts 46°
2026-05-04 06:45 50.94187 -0.61472 18549 ft 339 kts 46°
2026-05-04 06:45 50.95827 -0.58781 19183 ft 343 kts 46°
2026-05-04 06:45 50.97497 -0.56037 19802 ft 348 kts 46°
2026-05-04 06:45 50.99171 -0.53281 20402 ft 352 kts 46°
2026-05-04 06:46 51.00885 -0.50456 20993 ft 356 kts 46°
2026-05-04 06:46 51.02610 -0.47609 21563 ft 360 kts 46°
2026-05-04 06:46 51.04361 -0.44713 22131 ft 364 kts 46°
2026-05-04 06:46 51.06127 -0.41789 22694 ft 367 kts 46°
2026-05-04 06:48 51.18886 -0.20539 26062 ft 395 kts 47°
2026-05-04 06:48 51.20800 -0.17334 26498 ft 398 kts 47°
2026-05-04 06:49 51.22713 -0.14126 26907 ft 402 kts 47°
2026-05-04 06:50 51.32118 0.11567 29278 ft 404 kts 105°
2026-05-04 06:51 51.31588 0.16038 29572 ft 406 kts 106°
2026-05-04 06:51 51.31051 0.20470 29936 ft 408 kts 106°
2026-05-04 06:51 51.30514 0.24898 30261 ft 410 kts 107°
2026-05-04 06:51 51.29966 0.29398 30558 ft 413 kts 107°
2026-05-04 06:52 51.29411 0.33934 30863 ft 415 kts 107°
2026-05-04 06:52 51.28859 0.38436 31189 ft 416 kts 107°
2026-05-04 06:52 51.28297 0.42995 31459 ft 417 kts 107°
2026-05-04 06:52 51.27732 0.47564 31696 ft 419 kts 107°
2026-05-04 06:53 51.27163 0.52140 31949 ft 421 kts 107°
2026-05-04 06:53 51.26599 0.56661 32211 ft 422 kts 106°
2026-05-04 06:53 51.26018 0.61286 32469 ft 422 kts 106°
2026-05-04 06:53 51.25436 0.65881 32707 ft 423 kts 107°
2026-05-04 06:54 51.24851 0.70494 32955 ft 423 kts 107°
2026-05-04 06:54 51.24266 0.75092 33143 ft 425 kts 106°
2026-05-04 06:54 51.23675 0.79726 33330 ft 427 kts 107°
2026-05-04 06:54 51.23081 0.84374 33514 ft 428 kts 106°
2026-05-04 06:55 51.22481 0.89048 33710 ft 429 kts 106°
2026-05-04 06:55 51.21881 0.93708 33915 ft 430 kts 106°
2026-05-04 06:55 51.21277 0.98378 34132 ft 429 kts 106°
2026-05-04 06:55 51.20677 1.03007 34373 ft 428 kts 106°
2026-05-04 06:56 51.20073 1.07655 34584 ft 428 kts 105°
2026-05-04 06:57 51.16029 1.40911 34964 ft 457 kts 98°
2026-05-04 06:58 51.15564 1.51126 34948 ft 464 kts 98°
2026-05-04 06:58 51.15074 1.61496 34960 ft 473 kts 98°
2026-05-04 06:59 51.14563 1.72022 34948 ft 479 kts 99°
2026-05-04 06:59 51.14059 1.82162 34939 ft 486 kts 99°
2026-05-04 07:01 51.12078 2.20184 34942 ft 497 kts 99°
2026-05-04 07:01 51.11780 2.25674 34949 ft 498 kts 99°
2026-05-04 07:02 51.11182 2.36560 34948 ft 498 kts 99°
2026-05-04 07:02 51.10568 2.47532 34950 ft 498 kts 99°
2026-05-04 07:03 51.09942 2.58525 34949 ft 498 kts 99°
2026-05-04 07:03 51.08826 2.69252 34950 ft 490 kts 111°
2026-05-04 07:04 51.06927 2.79730 34951 ft 492 kts 111°
2026-05-04 07:04 51.05156 2.89464 34949 ft 493 kts 111°
2026-05-04 07:05 51.03239 2.99949 34944 ft 494 kts 111°
2026-05-04 07:05 51.01337 3.10299 34948 ft 495 kts 111°
2026-05-04 07:06 50.98425 3.26022 34946 ft 496 kts 112°
2026-05-04 07:07 50.96475 3.36476 34947 ft 497 kts 112°
2026-05-04 07:09 50.88508 3.78449 34947 ft 497 kts 112°
2026-05-04 07:09 50.86466 3.88981 34947 ft 497 kts 112°
2026-05-04 07:10 50.84495 3.99079 34944 ft 497 kts 113°
2026-05-04 07:12 50.76271 4.40719 34966 ft 499 kts 112°
2026-05-04 07:12 50.74178 4.51181 34973 ft 499 kts 112°
2026-05-04 07:13 50.72080 4.61642 34972 ft 500 kts 112°
2026-05-04 07:13 50.70054 4.72105 34968 ft 500 kts 112°
2026-05-04 07:14 50.64402 4.97822 34981 ft 492 kts 121°
2026-05-04 07:15 50.61454 5.07589 34977 ft 491 kts 121°
2026-05-04 07:15 50.58524 5.17273 34977 ft 491 kts 121°
2026-05-04 07:16 50.55568 5.27009 34977 ft 491 kts 121°
2026-05-04 07:16 50.52618 5.36693 34978 ft 491 kts 121°
2026-05-04 07:17 50.49657 5.46374 34975 ft 491 kts 121°
2026-05-04 07:17 50.46688 5.56046 34980 ft 491 kts 121°
2026-05-04 07:18 50.43704 5.65729 34975 ft 492 kts 121°
2026-05-04 07:18 50.40741 5.75305 34972 ft 491 kts 121°
2026-05-04 07:19 50.37733 5.84993 34981 ft 491 kts 121°
2026-05-04 07:19 50.34723 5.94644 34970 ft 491 kts 121°
2026-05-04 07:20 50.31721 6.04237 34970 ft 491 kts 121°
2026-05-04 07:20 50.28705 6.13836 34975 ft 491 kts 121°
2026-05-04 07:22 50.16532 6.51891 34977 ft 488 kts 122°
2026-05-04 07:23 50.13369 6.61221 34992 ft 487 kts 122°
2026-05-04 07:23 50.10182 6.70594 34991 ft 486 kts 123°
2026-05-04 07:24 50.07017 6.79868 34986 ft 484 kts 123°
2026-05-04 07:24 50.03921 6.88908 34993 ft 483 kts 123°
2026-05-04 07:26 49.91244 7.25604 35000 ft 484 kts 122°
2026-05-04 07:27 49.88048 7.34778 34999 ft 484 kts 122°
2026-05-04 07:27 49.84837 7.43960 35004 ft 484 kts 122°
2026-05-04 07:28 49.81775 7.52685 34998 ft 484 kts 122°
2026-05-04 07:28 49.78743 7.61296 34990 ft 484 kts 122°
2026-05-04 07:29 49.75575 7.70261 34998 ft 484 kts 123°
2026-05-04 07:29 49.72360 7.79331 34999 ft 484 kts 123°
2026-05-04 07:30 49.69137 7.88392 35000 ft 484 kts 123°
2026-05-04 07:30 49.65895 7.97471 34997 ft 484 kts 123°
2026-05-04 07:31 49.62623 8.06605 35001 ft 484 kts 123°
2026-05-04 07:33 49.49483 8.42960 35001 ft 486 kts 123°
2026-05-04 07:33 49.46183 8.52010 35007 ft 486 kts 123°
2026-05-04 07:34 49.42858 8.61098 35007 ft 486 kts 123°
2026-05-04 07:34 49.39593 8.69993 35002 ft 486 kts 124°
2026-05-04 07:35 49.36259 8.79043 35012 ft 486 kts 124°
2026-05-04 07:35 49.32901 8.88038 35007 ft 486 kts 124°
2026-05-04 07:36 49.29513 8.96998 35009 ft 487 kts 124°
2026-05-04 07:38 49.15845 9.32848 35018 ft 488 kts 124°
2026-05-04 07:38 49.12390 9.41836 35015 ft 488 kts 124°
2026-05-04 07:39 49.08962 9.50724 35014 ft 488 kts 124°
2026-05-04 07:39 49.05486 9.59704 35018 ft 489 kts 124°
2026-05-04 07:40 49.02074 9.68489 35012 ft 489 kts 124°
2026-05-04 07:40 48.98674 9.77214 35015 ft 490 kts 124°
2026-05-04 07:41 48.95118 9.86311 35014 ft 490 kts 124°
2026-05-04 07:41 48.91629 9.95205 35014 ft 491 kts 124°
2026-05-04 07:42 48.88112 10.04141 35012 ft 491 kts 124°
2026-05-04 07:42 48.84691 10.12859 35013 ft 491 kts 123°
2026-05-04 07:43 48.81303 10.21816 35008 ft 491 kts 123°
2026-05-04 07:43 48.78199 10.29999 35005 ft 491 kts 123°
2026-05-04 07:44 48.74739 10.39087 35009 ft 492 kts 123°
2026-05-04 07:44 48.71397 10.47834 35009 ft 491 kts 123°
2026-05-04 07:45 48.67968 10.56779 35006 ft 492 kts 123°
2026-05-04 07:45 48.64588 10.65563 35008 ft 492 kts 123°
2026-05-04 07:46 48.61120 10.74548 35019 ft 492 kts 124°
2026-05-04 07:46 48.58164 10.83360 35032 ft 496 kts 113°
2026-05-04 07:47 48.55906 10.93210 35022 ft 497 kts 111°
2026-05-04 07:49 48.46807 11.32739 35024 ft 498 kts 111°
2026-05-04 07:49 48.44504 11.42616 35019 ft 498 kts 111°
2026-05-04 07:50 48.42200 11.52446 35029 ft 498 kts 111°
2026-05-04 07:50 48.39865 11.62365 35025 ft 499 kts 111°
2026-05-04 07:51 48.37555 11.72131 35037 ft 499 kts 111°
2026-05-04 07:51 48.35229 11.81919 35039 ft 499 kts 111°
2026-05-04 07:52 48.32887 11.91725 35033 ft 500 kts 111°
2026-05-04 07:52 48.30526 12.01573 35037 ft 500 kts 111°
2026-05-04 07:54 48.21017 12.40778 35027 ft 499 kts 111°
2026-05-04 07:55 48.18628 12.50518 35024 ft 499 kts 111°
2026-05-04 07:55 48.16218 12.60304 35027 ft 499 kts 111°
2026-05-04 07:56 48.13600 12.69925 35029 ft 496 kts 120°
2026-05-04 07:56 48.10028 12.78412 35029 ft 495 kts 125°
2026-05-04 07:57 48.06433 12.86677 35029 ft 495 kts 124°
2026-05-04 07:57 48.02888 12.94796 35034 ft 496 kts 124°
2026-05-04 07:58 47.99025 13.03610 35038 ft 496 kts 124°
2026-05-04 07:58 47.95230 13.12237 35043 ft 495 kts 124°
2026-05-04 07:59 47.91446 13.20810 35035 ft 495 kts 124°
2026-05-04 07:59 47.87675 13.29324 35315 ft 489 kts 124°
2026-05-04 08:00 47.85800 13.33547 35561 ft 486 kts 124°
2026-05-04 08:00 47.83931 13.37751 35815 ft 482 kts 124°
2026-05-04 08:00 47.82347 13.41307 36049 ft 479 kts 124°
2026-05-04 08:02 47.69846 13.69206 37083 ft 473 kts 125°
2026-05-04 08:02 47.66155 13.77388 37090 ft 477 kts 125°
2026-05-04 08:03 47.62763 13.84889 37087 ft 481 kts 125°
2026-05-04 08:03 47.59093 13.92976 37100 ft 484 kts 125°
2026-05-04 08:04 47.55312 14.01284 37099 ft 487 kts 125°
2026-05-04 08:04 47.51536 14.09555 37092 ft 488 kts 125°
2026-05-04 08:05 47.47729 14.17870 37103 ft 487 kts 125°
2026-05-04 08:05 47.43911 14.26185 37106 ft 487 kts 125°
2026-05-04 08:06 47.40097 14.34464 37105 ft 488 kts 125°
2026-05-04 08:06 47.36257 14.42776 37092 ft 488 kts 125°
2026-05-04 08:08 47.21120 14.75294 37070 ft 488 kts 126°
2026-05-04 08:11 47.03942 15.11735 37093 ft 490 kts 125°
2026-05-04 08:11 46.98098 15.24022 37074 ft 489 kts 125°
2026-05-04 08:12 46.94190 15.32210 37072 ft 489 kts 125°
2026-05-04 08:12 46.90281 15.40376 37070 ft 489 kts 125°
2026-05-04 08:13 46.86443 15.48368 37072 ft 489 kts 125°
2026-05-04 08:13 46.82785 15.55964 37070 ft 490 kts 125°
2026-05-04 08:14 46.78857 15.64099 37073 ft 490 kts 124°
2026-05-04 08:16 46.62255 15.92920 37077 ft 490 kts 136°
2026-05-04 08:16 46.57327 15.99905 37087 ft 489 kts 136°
2026-05-04 08:17 46.52441 16.06812 37082 ft 490 kts 136°
2026-05-04 08:17 46.47551 16.13706 37084 ft 490 kts 136°
2026-05-04 08:19 46.27918 16.41210 37088 ft 491 kts 135°
2026-05-04 08:20 46.22992 16.48066 37086 ft 491 kts 135°
2026-05-04 08:20 46.18067 16.54903 37084 ft 491 kts 135°
2026-05-04 08:21 46.13143 16.61720 37089 ft 490 kts 135°
2026-05-04 08:21 46.08403 16.68266 37092 ft 491 kts 136°
2026-05-04 08:22 46.03461 16.75072 37103 ft 491 kts 136°
2026-05-04 08:24 45.83992 17.01718 37100 ft 491 kts 136°
2026-05-04 08:24 45.79260 17.08154 37101 ft 491 kts 136°
2026-05-04 08:25 45.74544 17.14551 37099 ft 492 kts 136°
2026-05-04 08:25 45.69579 17.21270 37105 ft 493 kts 136°
2026-05-04 08:27 45.49583 17.48154 37119 ft 494 kts 135°
2026-05-04 08:28 45.44590 17.54824 37114 ft 495 kts 135°
2026-05-04 08:28 45.39550 17.61540 37122 ft 495 kts 135°
2026-05-04 08:29 45.34616 17.68097 37115 ft 495 kts 136°
2026-05-04 08:31 45.14599 17.94538 37114 ft 497 kts 136°
2026-05-04 08:33 44.94251 18.21143 37124 ft 498 kts 136°
2026-05-04 08:35 44.74014 18.47341 37133 ft 499 kts 135°
2026-05-04 08:35 44.68879 18.53946 37128 ft 499 kts 135°
2026-05-04 08:37 44.51103 18.76688 37138 ft 500 kts 136°
2026-05-04 08:38 44.45945 18.83251 37139 ft 500 kts 136°
2026-05-04 08:38 44.40928 18.89619 37137 ft 500 kts 136°
2026-05-04 08:40 44.20280 19.15664 37151 ft 502 kts 136°
2026-05-04 08:41 44.15081 19.22181 37153 ft 502 kts 136°
2026-05-04 08:41 44.09870 19.28698 37152 ft 502 kts 135°
2026-05-04 08:42 44.04686 19.35165 37156 ft 502 kts 135°
2026-05-04 08:42 43.99460 19.41669 37159 ft 502 kts 135°
2026-05-04 08:43 43.94267 19.48116 37155 ft 502 kts 135°
2026-05-04 08:43 43.89068 19.54555 37161 ft 502 kts 135°
2026-05-04 08:44 43.83827 19.61029 37150 ft 503 kts 135°
2026-05-04 08:46 43.62975 19.86636 37155 ft 504 kts 136°
2026-05-04 08:46 43.57708 19.93065 37152 ft 505 kts 136°
2026-05-04 08:47 43.52444 19.99476 37156 ft 505 kts 136°
2026-05-04 08:47 43.47199 20.05847 37158 ft 505 kts 136°
2026-05-04 08:48 43.41928 20.12235 37175 ft 505 kts 135°
2026-05-04 08:48 43.36623 20.18648 37161 ft 506 kts 135°
2026-05-04 08:49 43.31354 20.25004 37165 ft 506 kts 135°
2026-05-04 08:50 43.12807 20.47253 37165 ft 506 kts 135°
2026-05-04 08:51 43.07475 20.53614 37167 ft 507 kts 135°
2026-05-04 08:51 43.02173 20.59925 37172 ft 508 kts 135°
2026-05-04 08:52 42.96991 20.66451 37166 ft 506 kts 133°
2026-05-04 08:52 42.91896 20.73125 37170 ft 506 kts 133°
2026-05-04 08:54 42.72152 20.98818 37164 ft 508 kts 133°
2026-05-04 08:55 42.67044 21.05424 37163 ft 509 kts 133°
2026-05-04 08:55 42.61893 21.12069 37161 ft 509 kts 133°
2026-05-04 09:01 42.05214 21.76515 37143 ft 515 kts 146°
2026-05-04 09:01 41.99262 21.81451 37148 ft 517 kts 146°
2026-05-04 09:02 41.93114 21.86535 37140 ft 517 kts 146°
2026-05-04 09:02 41.87007 21.91570 37145 ft 516 kts 146°
2026-05-04 09:03 41.81120 21.96415 37134 ft 516 kts 146°
2026-05-04 09:03 41.75011 22.01431 37155 ft 515 kts 146°
2026-05-04 09:04 41.69137 22.06244 37138 ft 515 kts 146°
2026-05-04 09:04 41.62983 22.11274 37138 ft 515 kts 146°
2026-05-04 09:05 41.56903 22.16231 37132 ft 515 kts 146°
2026-05-04 09:05 41.50784 22.21209 37141 ft 514 kts 146°
2026-05-04 09:06 41.44691 22.26153 37140 ft 513 kts 146°
2026-05-04 09:08 41.20289 22.45849 37146 ft 512 kts 146°
2026-05-04 09:08 41.14189 22.50745 37142 ft 511 kts 146°
2026-05-04 09:09 41.07938 22.55344 37140 ft 512 kts 149°
2026-05-04 09:09 41.01626 22.59831 37134 ft 512 kts 149°
2026-05-04 09:10 40.95371 22.64269 37137 ft 512 kts 149°
2026-05-04 09:10 40.89079 22.68725 37148 ft 512 kts 150°
2026-05-04 09:11 40.82909 22.73087 37147 ft 512 kts 150°
2026-05-04 09:11 40.76702 22.77465 37173 ft 512 kts 150°
2026-05-04 09:12 40.70665 22.81715 37149 ft 512 kts 150°
2026-05-04 09:14 40.45754 22.99798 37166 ft 509 kts 140°
2026-05-04 09:14 40.40622 23.06126 37167 ft 505 kts 130°
2026-05-04 09:15 40.35786 23.12841 37159 ft 506 kts 131°
2026-05-04 09:15 40.30948 23.19531 37164 ft 506 kts 131°
2026-05-04 09:17 40.09143 23.49457 37148 ft 505 kts 131°
2026-05-04 09:18 40.04269 23.56102 37137 ft 506 kts 131°
2026-05-04 09:18 39.99411 23.62708 37148 ft 505 kts 131°
2026-05-04 09:19 39.94562 23.69287 37158 ft 505 kts 131°
2026-05-04 09:19 39.89686 23.75888 37155 ft 505 kts 132°
2026-05-04 09:20 39.84784 23.82509 37166 ft 505 kts 132°
2026-05-04 09:20 39.80005 23.88950 37165 ft 505 kts 132°
2026-05-04 09:21 39.75105 23.95539 37158 ft 506 kts 132°
2026-05-04 09:21 39.70227 24.02083 37165 ft 506 kts 132°
2026-05-04 09:22 39.65358 24.08602 37157 ft 506 kts 132°
2026-05-04 09:22 39.60461 24.15144 37157 ft 507 kts 132°
2026-05-04 09:23 39.55541 24.21702 37161 ft 506 kts 132°
2026-05-04 09:23 39.50628 24.28237 37135 ft 505 kts 132°
2026-05-04 09:25 39.31049 24.54191 37158 ft 505 kts 132°
2026-05-04 09:26 39.26182 24.60700 37160 ft 505 kts 132°
2026-05-04 09:26 39.21302 24.67210 37161 ft 506 kts 133°
2026-05-04 09:27 39.16422 24.73706 37161 ft 506 kts 133°
2026-05-04 09:27 39.11631 24.80071 37162 ft 507 kts 133°
2026-05-04 09:28 39.06707 24.86500 37155 ft 507 kts 133°
2026-05-04 09:28 39.01762 24.92913 37154 ft 506 kts 134°
2026-05-04 09:29 38.96782 24.99359 37157 ft 506 kts 133°
2026-05-04 09:29 38.91834 25.05748 37153 ft 506 kts 133°
2026-05-04 09:30 38.86869 25.12147 37146 ft 506 kts 133°
2026-05-04 09:30 38.81879 25.18565 37147 ft 507 kts 133°
2026-05-04 09:31 38.76903 25.24951 37145 ft 507 kts 134°
2026-05-04 09:31 38.71942 25.31306 37141 ft 507 kts 133°
2026-05-04 09:32 38.66959 25.37675 37136 ft 507 kts 133°
2026-05-04 09:34 38.46988 25.63067 37129 ft 508 kts 134°
2026-05-04 09:34 38.41962 25.69423 37122 ft 508 kts 134°
2026-05-04 09:35 38.37133 25.75520 37124 ft 508 kts 134°
2026-05-04 09:35 38.32099 25.81888 37120 ft 508 kts 134°
2026-05-04 09:37 38.11216 26.06126 37114 ft 510 kts 138°
2026-05-04 09:38 38.05863 26.12033 37106 ft 510 kts 138°
2026-05-04 09:38 38.00522 26.17914 37099 ft 510 kts 138°
2026-05-04 09:39 37.95174 26.23791 37101 ft 510 kts 138°
2026-05-04 09:39 37.89809 26.29677 37091 ft 510 kts 138°
2026-05-04 09:40 37.84431 26.35560 37100 ft 510 kts 138°
2026-05-04 09:40 37.79050 26.41423 37093 ft 512 kts 138°
2026-05-04 09:42 37.57506 26.64819 37076 ft 512 kts 139°
2026-05-04 09:43 37.52143 26.70624 37070 ft 512 kts 139°
2026-05-04 09:43 37.46691 26.76513 37063 ft 512 kts 139°
2026-05-04 09:44 37.41291 26.82334 37064 ft 513 kts 139°
2026-05-04 09:46 37.20539 27.06922 37054 ft 513 kts 136°
2026-05-04 09:46 37.15358 27.13079 37044 ft 514 kts 136°
2026-05-04 09:47 37.10157 27.19248 37041 ft 515 kts 136°
2026-05-04 09:49 36.89299 27.43856 37027 ft 516 kts 136°
2026-05-04 09:51 36.70961 27.65327 36993 ft 517 kts 137°
2026-05-04 09:51 36.65702 27.71458 36998 ft 517 kts 137°
2026-05-04 09:52 36.60459 27.77559 37000 ft 518 kts 137°
2026-05-04 09:52 36.55170 27.83700 36980 ft 519 kts 137°
2026-05-04 09:53 36.49912 27.89794 36990 ft 518 kts 137°
2026-05-04 09:53 36.44655 27.95874 36980 ft 519 kts 137°
2026-05-04 09:54 36.39363 28.01984 36972 ft 520 kts 138°
2026-05-04 09:54 36.34079 28.08089 36973 ft 520 kts 136°
2026-05-04 09:55 36.29132 28.14623 36977 ft 520 kts 133°
2026-05-04 09:55 36.24230 28.21209 36965 ft 521 kts 133°
2026-05-04 09:56 36.19341 28.27762 36954 ft 522 kts 133°
2026-05-04 09:56 36.14430 28.34326 36951 ft 521 kts 133°
2026-05-04 09:57 36.09504 28.40894 36945 ft 521 kts 133°
2026-05-04 09:57 36.04558 28.47465 36943 ft 522 kts 133°
2026-05-04 09:58 35.99633 28.53990 36940 ft 522 kts 133°
2026-05-04 09:58 35.94679 28.60539 36936 ft 522 kts 134°
2026-05-04 10:00 35.74180 28.85619 36932 ft 523 kts 138°
2026-05-04 10:04 35.37331 29.28697 36913 ft 525 kts 138°
2026-05-04 10:04 35.32060 29.34814 36916 ft 525 kts 139°
2026-05-04 10:05 35.26754 29.40962 36922 ft 525 kts 139°
2026-05-04 10:05 35.21467 29.47075 36917 ft 526 kts 139°
2026-05-04 10:06 35.16134 29.53230 36909 ft 526 kts 139°
2026-05-04 10:06 35.10846 29.59323 36912 ft 526 kts 139°
2026-05-04 10:08 34.92276 29.80755 36925 ft 526 kts 139°
2026-05-04 10:08 34.87006 29.86909 36929 ft 526 kts 140°
2026-05-04 10:09 34.81715 29.93075 36934 ft 526 kts 140°
2026-05-04 10:09 34.76294 29.98940 36915 ft 521 kts 148°
2026-05-04 10:10 34.70104 30.03330 36933 ft 513 kts 159°
2026-05-04 10:10 34.63695 30.07069 36929 ft 513 kts 160°
2026-05-04 10:11 34.57283 30.10809 36926 ft 513 kts 160°
2026-05-04 10:11 34.50834 30.14566 36933 ft 513 kts 160°
2026-05-04 10:12 34.44423 30.18294 36935 ft 513 kts 160°
2026-05-04 10:12 34.37970 30.22040 36940 ft 513 kts 160°
2026-05-04 10:13 34.31566 30.25751 36944 ft 513 kts 160°
2026-05-04 10:13 34.25087 30.29500 36947 ft 514 kts 160°
2026-05-04 10:14 34.18676 30.33204 36900 ft 512 kts 160°
2026-05-04 10:16 33.92883 30.48041 36949 ft 514 kts 161°
2026-05-04 10:16 33.86423 30.51741 36973 ft 513 kts 161°
2026-05-04 10:17 33.80000 30.55415 36972 ft 513 kts 161°
2026-05-04 10:19 33.54499 30.69938 36988 ft 511 kts 162°
2026-05-04 10:19 33.48067 30.73586 36973 ft 512 kts 163°
2026-05-04 10:20 33.41615 30.77238 36992 ft 512 kts 163°
2026-05-04 10:20 33.35197 30.80867 36998 ft 512 kts 163°
2026-05-04 10:21 33.28743 30.84508 37006 ft 512 kts 163°
2026-05-04 10:21 33.22292 30.88143 37004 ft 512 kts 163°
2026-05-04 10:22 33.12598 30.93453 37004 ft 505 kts 169°
2026-05-04 10:23 33.05963 30.95436 37018 ft 484 kts 183°
2026-05-04 10:25 32.79292 30.98489 37029 ft 480 kts 185°
2026-05-04 10:25 32.72655 30.99234 37028 ft 479 kts 185°
2026-05-04 10:26 32.66004 30.99978 37035 ft 479 kts 185°
2026-05-04 10:26 32.59361 31.00720 37033 ft 479 kts 185°
2026-05-04 10:27 32.52736 31.01458 37036 ft 479 kts 185°
2026-05-04 10:27 32.46113 31.02194 37039 ft 478 kts 185°
2026-05-04 10:28 32.39482 31.02931 37045 ft 477 kts 185°
2026-05-04 10:28 32.32870 31.03662 37051 ft 477 kts 185°
2026-05-04 10:29 32.26288 31.04389 37047 ft 476 kts 185°
2026-05-04 10:29 32.19688 31.05118 37054 ft 476 kts 186°
2026-05-04 10:30 32.13074 31.05846 37065 ft 475 kts 185°
2026-05-04 10:30 32.06524 31.06567 37069 ft 474 kts 186°
2026-05-04 10:31 31.99963 31.07282 37068 ft 473 kts 186°
2026-05-04 10:32 31.77137 31.09739 37069 ft 472 kts 186°
2026-05-04 10:33 31.70564 31.10443 37071 ft 472 kts 186°
2026-05-04 10:33 31.64020 31.11144 37064 ft 473 kts 186°
2026-05-04 10:34 31.57445 31.11847 37073 ft 473 kts 186°
2026-05-04 10:34 31.50868 31.12644 37069 ft 478 kts 182°
2026-05-04 10:35 31.44271 31.13894 37067 ft 479 kts 181°
2026-05-04 10:35 31.37673 31.15146 37072 ft 479 kts 181°
2026-05-04 10:36 31.31094 31.16390 37069 ft 478 kts 182°
2026-05-04 10:36 31.24527 31.17626 37067 ft 478 kts 181°
2026-05-04 10:37 31.17957 31.18857 37071 ft 478 kts 181°
2026-05-04 10:37 31.11360 31.20090 37063 ft 479 kts 182°
2026-05-04 10:39 30.88335 31.24372 37061 ft 477 kts 182°
2026-05-04 10:40 30.81790 31.25584 37057 ft 477 kts 181°
2026-05-04 10:40 30.75324 31.26779 37062 ft 477 kts 181°
2026-05-04 10:41 30.68720 31.27999 37060 ft 476 kts 181°
2026-05-04 10:41 30.62157 31.29209 37066 ft 475 kts 181°
2026-05-04 10:42 30.55633 31.30409 37068 ft 475 kts 181°
2026-05-04 10:42 30.49066 31.31615 37063 ft 475 kts 181°
2026-05-04 10:43 30.42549 31.32811 37188 ft 477 kts 181°
2026-05-04 10:45 30.16366 31.37624 37086 ft 475 kts 180°
2026-05-04 10:45 30.09883 31.39772 37091 ft 493 kts 168°
2026-05-04 10:46 30.03734 31.43573 37094 ft 512 kts 154°
2026-05-04 10:46 29.97961 31.48485 37092 ft 514 kts 152°
2026-05-04 10:47 29.92238 31.53379 37100 ft 514 kts 152°
2026-05-04 10:47 29.86471 31.58300 37091 ft 512 kts 152°
2026-05-04 10:49 29.64060 31.77335 37092 ft 510 kts 153°
2026-05-04 10:50 29.58360 31.82154 37094 ft 511 kts 153°
2026-05-04 10:52 29.35399 32.01497 37194 ft 512 kts 153°
2026-05-04 10:52 29.32535 32.03902 37373 ft 512 kts 153°
2026-05-04 10:52 29.29660 32.06315 37524 ft 511 kts 153°
2026-05-04 10:54 29.09660 32.23048 38583 ft 508 kts 153°
2026-05-04 10:54 29.06793 32.25440 38764 ft 507 kts 154°
2026-05-04 10:56 28.86911 32.41979 39687 ft 505 kts 153°
2026-05-04 10:56 28.84085 32.44324 39858 ft 504 kts 154°
2026-05-04 10:56 28.81229 32.46692 40017 ft 502 kts 153°
2026-05-04 10:57 28.78402 32.49035 40215 ft 500 kts 154°
2026-05-04 10:57 28.75710 32.51264 40346 ft 499 kts 154°
2026-05-04 10:57 28.72868 32.53616 40479 ft 499 kts 154°
2026-05-04 10:57 28.70076 32.55924 40585 ft 498 kts 154°
2026-05-04 10:58 28.67279 32.58233 40633 ft 499 kts 154°
2026-05-04 10:58 28.64469 32.60552 40768 ft 498 kts 154°
2026-05-04 10:58 28.61646 32.62882 40907 ft 497 kts 154°
2026-05-04 10:58 28.58848 32.65189 41009 ft 496 kts 154°
2026-05-04 10:59 28.56057 32.67489 41082 ft 495 kts 154°
2026-05-04 10:59 28.50596 32.71981 41077 ft 497 kts 154°
2026-05-04 11:00 28.44896 32.76664 41062 ft 499 kts 154°
2026-05-04 11:02 28.22344 32.95135 41053 ft 506 kts 154°
2026-05-04 11:05 27.79370 33.30079 41016 ft 507 kts 154°
2026-05-04 11:06 27.73625 33.34724 41014 ft 507 kts 154°
2026-05-04 11:06 27.67901 33.39347 41014 ft 507 kts 154°
2026-05-04 11:10 27.27866 33.71505 40991 ft 501 kts 155°
2026-05-04 11:12 27.12650 33.94021 40981 ft 548 kts 118°
2026-05-04 11:12 27.11258 33.97926 40970 ft 548 kts 118°
2026-05-04 11:12 27.08427 34.05849 40957 ft 547 kts 118°
2026-05-04 11:13 27.05603 34.13741 40949 ft 547 kts 118°
2026-05-04 11:13 27.02772 34.21640 40945 ft 546 kts 118°
2026-05-04 11:14 26.99926 34.29562 40942 ft 546 kts 119°
2026-05-04 11:16 26.88557 34.61068 40946 ft 545 kts 118°
2026-05-04 11:16 26.85774 34.68741 40948 ft 544 kts 119°
2026-05-04 11:17 26.82953 34.76507 40949 ft 544 kts 119°
2026-05-04 11:19 26.71636 35.07521 40946 ft 543 kts 119°
2026-05-04 11:19 26.68762 35.15363 40945 ft 543 kts 119°
2026-05-04 11:20 26.65902 35.23152 40947 ft 542 kts 119°
2026-05-04 11:20 26.63046 35.30915 40944 ft 542 kts 119°
2026-05-04 11:22 26.51518 35.61720 40937 ft 538 kts 120°
2026-05-04 11:23 26.48584 35.69392 40934 ft 536 kts 120°
2026-05-04 11:25 26.38415 35.95875 40921 ft 534 kts 120°
2026-05-04 11:25 26.35496 36.03447 40926 ft 534 kts 120°
2026-05-04 11:27 26.22308 36.37482 40930 ft 531 kts 120°
2026-05-04 11:28 26.19892 36.45350 40931 ft 541 kts 108°
2026-05-04 11:28 26.18856 36.53655 40931 ft 550 kts 96°
2026-05-04 11:29 26.19273 36.62189 40924 ft 555 kts 86°
2026-05-04 11:29 26.20124 36.70672 40934 ft 552 kts 86°
2026-05-04 11:33 26.25901 37.29827 41021 ft 551 kts 87°
2026-05-04 11:33 26.26709 37.38304 41055 ft 552 kts 86°
2026-05-04 11:34 26.27516 37.46825 41091 ft 553 kts 87°
2026-05-04 11:34 26.28318 37.55347 41094 ft 554 kts 87°
2026-05-04 11:35 26.29114 37.63845 41072 ft 554 kts 87°
2026-05-04 11:35 26.29906 37.72371 41044 ft 554 kts 87°
2026-05-04 11:36 26.30673 37.80658 41015 ft 554 kts 87°
2026-05-04 11:36 26.31457 37.89174 41002 ft 555 kts 87°
2026-05-04 11:37 26.32238 37.97722 40989 ft 556 kts 87°
2026-05-04 11:37 26.33013 38.06260 40998 ft 557 kts 87°
2026-05-04 11:38 26.33792 38.14892 41004 ft 557 kts 87°
2026-05-04 11:38 26.34561 38.23470 41009 ft 557 kts 87°
2026-05-04 11:39 26.35322 38.32036 41029 ft 557 kts 88°
2026-05-04 11:41 26.37942 38.62020 41097 ft 556 kts 87°
2026-05-04 11:41 26.38682 38.70621 41121 ft 556 kts 87°
2026-05-04 11:42 26.39398 38.78993 41138 ft 555 kts 88°
2026-05-04 11:42 26.40124 38.87551 41125 ft 556 kts 88°
2026-05-04 11:43 26.40848 38.96155 41120 ft 556 kts 88°
2026-05-04 11:43 26.41563 39.04707 41130 ft 556 kts 88°
2026-05-04 11:44 26.42278 39.13316 41115 ft 556 kts 88°
2026-05-04 11:44 26.42982 39.21863 41138 ft 556 kts 88°
2026-05-04 11:45 26.43590 39.30424 41143 ft 555 kts 90°
2026-05-04 11:45 26.44020 39.38994 41142 ft 556 kts 90°
2026-05-04 11:46 26.44451 39.47631 41141 ft 556 kts 90°
2026-05-04 11:46 26.44875 39.56209 41150 ft 556 kts 90°
2026-05-04 11:47 26.45295 39.64812 41154 ft 556 kts 90°
2026-05-04 11:47 26.45710 39.73426 41162 ft 554 kts 91°
2026-05-04 11:48 26.46096 39.81498 41163 ft 554 kts 90°
2026-05-04 11:48 26.46502 39.90124 41162 ft 555 kts 91°
2026-05-04 11:49 26.46901 39.98707 41176 ft 555 kts 91°
2026-05-04 11:49 26.47297 40.07323 41159 ft 554 kts 91°
2026-05-04 11:50 26.47687 40.15923 41155 ft 554 kts 91°
2026-05-04 11:50 26.48071 40.24504 41155 ft 554 kts 91°
2026-05-04 11:51 26.48449 40.33069 41135 ft 555 kts 91°
2026-05-04 11:51 26.48825 40.41694 41119 ft 555 kts 91°
2026-05-04 11:52 26.49193 40.50277 41116 ft 554 kts 91°
2026-05-04 11:52 26.49557 40.58868 41096 ft 554 kts 91°
2026-05-04 11:53 26.49915 40.67448 41087 ft 554 kts 92°
2026-05-04 11:53 26.50256 40.75764 41085 ft 553 kts 92°
2026-05-04 11:55 26.51043 41.09975 41066 ft 548 kts 99°
2026-05-04 11:56 26.50440 41.18475 41074 ft 547 kts 100°
2026-05-04 11:56 26.49841 41.26917 41069 ft 546 kts 100°
2026-05-04 11:57 26.49232 41.35422 41071 ft 546 kts 100°
2026-05-04 11:57 26.48626 41.43823 41071 ft 545 kts 99°
2026-05-04 11:58 26.48016 41.52235 41071 ft 544 kts 99°
2026-05-04 11:58 26.47400 41.60652 41056 ft 545 kts 99°
2026-05-04 11:59 26.46780 41.69071 41057 ft 544 kts 101°
2026-05-04 11:59 26.46162 41.77386 41051 ft 543 kts 101°
2026-05-04 12:00 26.45535 41.85772 41049 ft 542 kts 101°
2026-05-04 12:00 26.44907 41.94094 41058 ft 541 kts 100°
2026-05-04 12:01 26.44268 42.02490 41050 ft 542 kts 101°
2026-05-04 12:02 26.42006 42.31718 41047 ft 540 kts 100°
2026-05-04 12:03 26.41347 42.40085 41051 ft 541 kts 100°
2026-05-04 12:03 26.40689 42.48384 41062 ft 541 kts 100°
2026-05-04 12:04 26.40022 42.56735 41057 ft 542 kts 101°
2026-05-04 12:04 26.39346 42.65132 41054 ft 542 kts 101°
2026-05-04 12:05 26.38665 42.73542 41048 ft 541 kts 101°
2026-05-04 12:05 26.38004 42.81639 41043 ft 542 kts 101°
2026-05-04 12:06 26.37315 42.90016 41044 ft 541 kts 101°
2026-05-04 12:06 26.36623 42.98364 41039 ft 542 kts 101°
2026-05-04 12:07 26.35926 43.06720 41033 ft 543 kts 101°
2026-05-04 12:07 26.35221 43.15114 41024 ft 542 kts 101°
2026-05-04 12:08 26.34515 43.23448 41005 ft 541 kts 100°
2026-05-04 12:08 26.33808 43.31745 40999 ft 540 kts 101°
2026-05-04 12:09 26.33090 43.40114 40996 ft 539 kts 100°
2026-05-04 12:09 26.32372 43.48415 40982 ft 539 kts 100°
2026-05-04 12:10 26.31651 43.56702 40969 ft 540 kts 100°
2026-05-04 12:10 26.30922 43.65021 40969 ft 539 kts 101°
2026-05-04 12:11 26.30102 43.73366 40966 ft 535 kts 105°
2026-05-04 12:11 26.28175 43.81104 40959 ft 523 kts 118°
2026-05-04 12:12 26.25051 43.88328 40959 ft 516 kts 124°
2026-05-04 12:12 26.21788 43.95416 40963 ft 516 kts 124°
2026-05-04 12:14 26.08706 44.23737 40966 ft 514 kts 124°
2026-05-04 12:15 26.05429 44.30806 40963 ft 514 kts 124°
2026-05-04 12:15 26.02164 44.37836 40966 ft 513 kts 124°
2026-05-04 12:16 25.98882 44.44891 40970 ft 513 kts 124°
2026-05-04 12:16 25.95607 44.51921 40975 ft 513 kts 124°
2026-05-04 12:17 25.92323 44.58959 40978 ft 513 kts 124°
2026-05-04 12:17 25.89040 44.65986 40980 ft 512 kts 124°
2026-05-04 12:18 25.85864 44.72771 40979 ft 511 kts 124°
2026-05-04 12:18 25.84217 44.76284 40770 ft 508 kts 124°
2026-05-04 12:18 25.82603 44.79727 40184 ft 502 kts 124°
2026-05-04 12:19 25.81067 44.83001 39596 ft 497 kts 124°
2026-05-04 12:19 25.79474 44.86392 38991 ft 491 kts 125°
2026-05-04 12:19 25.77985 44.89558 38404 ft 487 kts 125°
2026-05-04 12:19 25.76406 44.92912 37798 ft 484 kts 124°
2026-05-04 12:20 25.74841 44.96230 37121 ft 483 kts 124°
2026-05-04 12:20 25.73298 44.99503 36499 ft 481 kts 124°
2026-05-04 12:20 25.71736 45.02810 35863 ft 479 kts 124°
2026-05-04 12:20 25.70184 45.06097 35220 ft 477 kts 124°
2026-05-04 12:21 25.68656 45.09327 34610 ft 475 kts 124°
2026-05-04 12:21 25.67113 45.12590 33973 ft 473 kts 124°
2026-05-04 12:21 25.65593 45.15802 33356 ft 470 kts 124°
2026-05-04 12:21 25.64085 45.18990 32737 ft 468 kts 124°
2026-05-04 12:22 25.62566 45.22199 32110 ft 467 kts 123°
2026-05-04 12:22 25.61073 45.25349 31498 ft 466 kts 123°
2026-05-04 12:22 25.59577 45.28506 30878 ft 464 kts 123°
2026-05-04 12:22 25.58081 45.31658 30271 ft 463 kts 123°
2026-05-04 12:23 25.56586 45.34807 29655 ft 461 kts 123°
2026-05-04 12:23 25.55094 45.37947 29050 ft 459 kts 123°
2026-05-04 12:23 25.53610 45.41069 28457 ft 458 kts 123°
2026-05-04 12:23 25.52128 45.44185 27843 ft 456 kts 122°
2026-05-04 12:24 25.50661 45.47268 27255 ft 454 kts 122°
2026-05-04 12:24 25.49190 45.50355 26652 ft 452 kts 122°
2026-05-04 12:24 25.47725 45.53427 26052 ft 449 kts 122°
2026-05-04 12:24 25.46275 45.56468 25453 ft 446 kts 122°
2026-05-04 12:25 25.44846 45.59462 24864 ft 443 kts 121°
2026-05-04 12:25 25.43409 45.62470 24263 ft 440 kts 121°
2026-05-04 12:25 25.41990 45.65440 23682 ft 435 kts 121°
2026-05-04 12:25 25.40581 45.68389 23105 ft 430 kts 121°
2026-05-04 12:26 25.39231 45.71212 22560 ft 424 kts 121°
2026-05-04 12:26 25.37878 45.74036 22013 ft 418 kts 121°
2026-05-04 12:26 25.36512 45.76888 21443 ft 413 kts 121°
2026-05-04 12:26 25.35241 45.79694 20910 ft 408 kts 118°
2026-05-04 12:27 25.34044 45.82516 20360 ft 403 kts 117°
2026-05-04 12:27 25.32856 45.85319 19834 ft 398 kts 117°
2026-05-04 12:27 25.31699 45.88043 19314 ft 393 kts 117°
2026-05-04 12:27 25.30547 45.90755 18805 ft 387 kts 117°
2026-05-04 12:28 25.29411 45.93427 18296 ft 383 kts 117°
2026-05-04 12:28 25.28289 45.96067 17794 ft 379 kts 117°
2026-05-04 12:28 25.27168 45.98702 17296 ft 374 kts 117°
2026-05-04 12:28 25.26067 46.01288 16800 ft 370 kts 117°
2026-05-04 12:29 25.24989 46.03819 16314 ft 365 kts 117°
2026-05-04 12:29 25.23912 46.06349 15829 ft 361 kts 116°
2026-05-04 12:29 25.22859 46.08819 15359 ft 357 kts 116°
2026-05-04 12:29 25.21810 46.11277 14884 ft 352 kts 116°
2026-05-04 12:30 25.20766 46.13723 14413 ft 348 kts 116°
2026-05-04 12:30 25.19743 46.16121 13952 ft 344 kts 116°
2026-05-04 12:30 25.18733 46.18486 13592 ft 337 kts 116°
2026-05-04 12:30 25.17771 46.20821 13155 ft 334 kts 111°
2026-05-04 12:31 25.17387 46.23338 12642 ft 333 kts 87°
2026-05-04 12:31 25.17758 46.25842 12143 ft 331 kts 77°
2026-05-04 12:31 25.18229 46.28307 11695 ft 327 kts 78°
2026-05-04 12:31 25.18685 46.30730 11347 ft 321 kts 78°
2026-05-04 12:32 25.19137 46.33135 10951 ft 318 kts 78°
2026-05-04 12:32 25.20027 46.37857 10114 ft 313 kts 78°
2026-05-04 12:32 25.20465 46.40189 9693 ft 310 kts 78°
2026-05-04 12:33 25.20901 46.42510 9253 ft 307 kts 78°
2026-05-04 12:33 25.21331 46.44795 8788 ft 305 kts 78°
2026-05-04 12:33 25.21737 46.47078 8293 ft 303 kts 82°
2026-05-04 12:33 25.21657 46.49395 7818 ft 299 kts 103°
2026-05-04 12:34 25.20854 46.51485 7365 ft 295 kts 124°
2026-05-04 12:34 25.19483 46.53108 6943 ft 289 kts 143°
2026-05-04 12:34 25.17797 46.54285 6411 ft 288 kts 149°
2026-05-04 12:34 25.16079 46.55417 5989 ft 280 kts 150°
2026-05-04 12:35 25.14410 46.56488 5604 ft 274 kts 150°
2026-05-04 12:35 25.12812 46.57510 5261 ft 254 kts 150°
2026-05-04 12:35 25.11360 46.58435 4978 ft 231 kts 150°
2026-05-04 12:35 25.10018 46.59289 4707 ft 213 kts 150°
2026-05-04 12:36 25.08775 46.60078 4445 ft 200 kts 150°
2026-05-04 12:36 25.07560 46.60850 4204 ft 200 kts 149°
2026-05-04 12:36 25.06360 46.61612 3974 ft 193 kts 149°
2026-05-04 12:36 25.05258 46.62311 3746 ft 169 kts 149°
2026-05-04 12:37 25.04296 46.62922 3555 ft 155 kts 149°
2026-05-04 12:37 25.03366 46.63512 3348 ft 151 kts 150°
2026-05-04 12:37 25.02454 46.64090 3174 ft 149 kts 150°
2026-05-04 12:37 25.01547 46.64665 2994 ft 148 kts 151°
2026-05-04 12:38 25.00640 46.65232 2829 ft 148 kts 152°
2026-05-04 12:38 24.99748 46.65789 2645 ft 146 kts 152°
2026-05-04 12:38 24.98920 46.66316 2484 ft 147 kts 150°
2026-05-04 12:38 24.98037 46.66884 2310 ft 145 kts 151°
2026-05-04 12:39 24.97164 46.67444 2109 ft 142 kts 154°
2026-05-04 12:39 24.96349 46.67960 2052 ft 121 kts 150°
2026-05-04 12:39 24.95791 46.68314 2051 ft 65 kts 150°
2026-05-04 12:39 24.95522 46.68551 2051 ft 40 kts 121°
2026-05-04 12:40 24.95496 46.68746 2051 ft 19 kts 65°
2026-05-04 12:40 24.95569 46.68882 2051 ft 21 kts 60°
2026-05-04 12:40 24.95643 46.69025 2051 ft 15 kts 59°
2026-05-04 12:40 24.95729 46.69026 2051 ft 12 kts 297°
2026-05-04 12:41 24.95698 46.68962 2051 ft 6 kts 242°
2026-05-04 12:41 24.95695 46.68955 2051 ft 0 kts 241°